Content
SEND FEEDBACK

Daily
Averages
Monthly
Summary
United States of America

ANN ARBOR, MICHIGAN


Home > North America > United States > Michigan
Elevation: 759 feet     Latitude: 42 17N     Longitude: 083 43W

WEATHER
 
SELECT A DAY
Number of Records: 203,747;   Date Range: 1/1/95 - 8/17/14
 
SHARE

PRINT THIS DATA

[ ← Previous Day ]
WEATHER ALMANAC - AUGUST 14, 2013
[ Next Day → ]
[ °C ]   °F
Weather ElementAverageHighLow
Temperature58.7 °F71.1 °F (4:53 pm)48.9 °F (5:53 am)
Dewpoint46.9 °F51.1 °F (8:53 pm)44.1 °F (2:53 am)
Humidity67.9 %97 % (11:53 pm)42 % (4:53 pm)
Barometer30.14 in30.17 in (10:53 am)30.09 in (1:53 am)
Wind Speed5.9 mph12.7 mph (11:53 am)
Weather ElementAverage
Visibility10 mi
Wind DirectionSSW (187.4 °)

Weather ElementTotal
Precipitation---
Heating Degree Days5 (Base 65)
Growing Degree Days10 (Base 50)
Averaged from 23 records on August 14, 2013
WEATHER CONDITIONS BREAKOUT
WIND DIRECTION BREAKOUT
WEATHER BY HOUR - AUGUST 14, 2013
[ °C ]   °F
Local TimeTemperatureDewpointHumidityBarometerVisibilityWind DirectionWind SpeedGust SpeedPrecipitationEventsConditions
1:53 AM52.0 °F45.0 °F77 %30.09 in10.0 miNNW (330°)6.9 mphClear
2:53 AM50.0 °F44.1 °F80 %30.09 in10.0 miNW (310°)5.8 mphClear
3:53 AM51.1 °F44.1 °F77 %30.09 in10.0 miNNW (330°)8.1 mphClear
4:53 AM50.0 °F45.0 °F83 %30.09 in10.0 miNNW (340°)8.1 mphClear
5:53 AM48.9 °F45.0 °F86 %30.11 in10.0 miNW (320°)5.8 mphClear
6:53 AM48.9 °F45.0 °F86 %30.13 in10.0 miNNW (330°)8.1 mphClear
7:53 AM52.0 °F46.0 °F80 %30.14 in10.0 miNNW (340°)6.9 mphClear
8:53 AM55.0 °F48.0 °F77 %30.16 in10.0 miNNW (340°)11.5 mphClear
9:53 AM60.1 °F50.0 °F69 %30.16 in10.0 miNorth (10°)10.4 mphClear
10:53 AM63.0 °F48.9 °F60 %30.17 in10.0 miNorth (360°)10.4 mphClear
11:53 AM64.9 °F48.0 °F54 %30.17 in10.0 miNNE (20°)12.7 mphScattered Clouds
12:53 PM68.0 °F46.9 °F47 %30.17 in10.0 miNW (310°)5.8 mphScattered Clouds
1:53 PM66.9 °F46.9 °F49 %30.17 in10.0 miNorth (10°)6.9 mphMostly Cloudy
2:53 PM69.1 °F48.0 °F47 %30.16 in10.0 miCalmOvercast
3:53 PM69.1 °F46.0 °F44 %30.15 in10.0 miNW (320°)6.9 mphMostly Cloudy
4:53 PM71.1 °F46.9 °F42 %30.14 in10.0 miNNW (340°)5.8 mphPartly Cloudy
5:53 PM70.0 °F46.0 °F42 %30.14 in10.0 miVariable4.6 mphPartly Cloudy
6:53 PM69.1 °F46.9 °F45 %30.14 in10.0 miNorthScattered Clouds
7:53 PM64.0 °F46.9 °F54 %30.14 in10.0 miWNW (300°)4.6 mphClear
8:53 PM55.9 °F51.1 °F84 %30.15 in10.0 miCalmClear
9:53 PM52.0 °F48.9 °F89 %30.16 in10.0 miCalmClear
10:53 PM50.0 °F48.0 °F93 %30.16 in10.0 miCalmClear
11:53 PM48.9 °F48.0 °F97 %30.17 in10.0 miCalmClear
Hourly data recorded from KARB, located miles away from Ann Arbor, Michigan







STORIES FROM OUR PARTNERS